TimeCST,TemperatureF,Dew PointF,Humidity,Sea Level PressureIn,VisibilityMPH,Wind Direction,Wind SpeedMPH,Gust SpeedMPH,PrecipitationIn,Events,Conditions,WindDirDegrees,DateUTC
12:15 AM,43.3,33.3,68,30.35,10.0,South,5.8,-,N/A,Rain,Light Rain,190,2013-01-05 06:15:00
12:55 AM,42.4,35.1,75,30.35,10.0,SSW,6.9,-,N/A,,Overcast,200,2013-01-05 06:55:00
1:15 AM,42.8,35.8,76,30.34,10.0,SSW,6.9,-,N/A,,Overcast,200,2013-01-05 07:15:00
1:35 AM,43.0,37.0,80,30.34,10.0,SW,9.2,-,N/A,Rain,Light Rain,220,2013-01-05 07:35:00
1:55 AM,42.8,37.8,82,30.35,10.0,SW,9.2,-,N/A,,Light Drizzle,230,2013-01-05 07:55:00
2:15 AM,42.3,37.9,85,30.35,10.0,WSW,8.1,-,N/A,,Drizzle,240,2013-01-05 08:15:00
2:35 AM,42.1,38.1,86,30.34,10.0,WSW,6.9,-,N/A,,Overcast,250,2013-01-05 08:35:00
2:55 AM,41.9,37.4,84,30.34,10.0,WSW,4.6,-,N/A,,Overcast,250,2013-01-05 08:55:00
3:15 AM,41.9,37.2,83,30.35,10.0,WSW,4.6,-,N/A,,Overcast,240,2013-01-05 09:15:00
3:35 AM,41.9,36.7,82,30.35,10.0,WSW,5.8,-,N/A,,Overcast,250,2013-01-05 09:35:00
4:15 AM,41.9,36.0,79,30.35,10.0,SSW,5.8,-,N/A,,Overcast,210,2013-01-05 10:15:00
4:35 AM,41.9,36.1,80,30.34,10.0,SSW,4.6,-,N/A,,Overcast,200,2013-01-05 10:35:00
4:55 AM,41.2,37.0,85,30.33,10.0,South,5.8,-,N/A,,Overcast,170,2013-01-05 10:55:00
5:15 AM,40.8,37.0,86,30.32,10.0,South,4.6,-,N/A,,Overcast,170,2013-01-05 11:15:00
5:35 AM,40.1,37.0,89,30.32,10.0,South,5.8,-,N/A,,Overcast,180,2013-01-05 11:35:00
5:55 AM,38.8,36.7,92,30.32,10.0,South,4.6,-,N/A,,Scattered Clouds,190,2013-01-05 11:55:00
6:15 AM,38.3,36.5,93,30.32,10.0,SSE,3.5,-,N/A,,Scattered Clouds,160,2013-01-05 12:15:00
6:35 AM,37.8,36.7,96,30.32,7.0,SSE,4.6,-,N/A,,Mostly Cloudy,160,2013-01-05 12:35:00
6:55 AM,37.2,36.3,97,30.32,7.0,South,4.6,-,N/A,,Scattered Clouds,180,2013-01-05 12:55:00
7:15 AM,36.5,35.8,97,30.32,5.0,SW,4.6,-,N/A,,Clear,230,2013-01-05 13:15:00
7:35 AM,37.2,36.7,98,30.33,5.0,SW,3.5,-,N/A,,Mostly Cloudy,230,2013-01-05 13:35:00
8:15 AM,39.7,38.5,95,30.34,7.0,SW,8.1,-,N/A,,Overcast,220,2013-01-05 14:15:00
8:35 AM,39.9,38.3,94,30.34,10.0,SSW,6.9,-,N/A,,Overcast,210,2013-01-05 14:35:00
9:15 AM,41.2,38.7,91,30.34,10.0,SSW,8.1,-,N/A,,Overcast,200,2013-01-05 15:15:00
9:35 AM,41.5,38.5,89,30.34,10.0,SW,6.9,-,N/A,,Overcast,230,2013-01-05 15:35:00
9:55 AM,40.5,38.1,91,30.34,10.0,WSW,10.4,-,N/A,,Overcast,240,2013-01-05 15:55:00
10:15 AM,40.3,38.3,93,30.34,10.0,SW,6.9,-,N/A,,Overcast,230,2013-01-05 16:15:00
10:35 AM,40.5,37.8,90,30.34,10.0,WSW,5.8,-,N/A,,Overcast,240,2013-01-05 16:35:00
10:55 AM,40.1,37.6,91,30.34,10.0,WSW,6.9,-,N/A,,Overcast,240,2013-01-05 16:55:00
11:15 AM,41.0,37.8,88,30.33,10.0,WSW,6.9,-,N/A,,Overcast,240,2013-01-05 17:15:00
11:35 AM,41.2,37.6,87,30.33,10.0,West,6.9,-,N/A,,Overcast,260,2013-01-05 17:35:00
11:55 AM,41.0,36.9,85,30.32,10.0,WSW,5.8,-,N/A,,Overcast,250,2013-01-05 17:55:00
12:15 PM,41.9,37.4,84,30.30,10.0,SW,6.9,-,N/A,,Overcast,230,2013-01-05 18:15:00
12:35 PM,43.3,37.8,81,30.29,10.0,WSW,6.9,-,N/A,,Overcast,240,2013-01-05 18:35:00
12:55 PM,43.9,38.1,80,30.27,10.0,West,6.9,-,N/A,,Overcast,260,2013-01-05 18:55:00
1:15 PM,44.6,37.8,77,30.25,10.0,SSW,8.1,-,N/A,,Overcast,210,2013-01-05 19:15:00
1:35 PM,46.8,37.6,70,30.23,10.0,SW,4.6,-,N/A,,Mostly Cloudy,220,2013-01-05 19:35:00
1:55 PM,46.9,37.6,70,30.23,10.0,South,8.1,-,N/A,,Mostly Cloudy,190,2013-01-05 19:55:00
2:15 PM,49.1,37.8,65,30.22,10.0,SW,8.1,-,N/A,,Scattered Clouds,230,2013-01-05 20:15:00
2:35 PM,49.3,37.8,65,30.22,10.0,South,8.1,-,N/A,,Scattered Clouds,190,2013-01-05 20:35:00
3:15 PM,50.4,37.8,62,30.22,10.0,SW,9.2,-,N/A,,Clear,230,2013-01-05 21:15:00
3:35 PM,50.2,37.9,63,30.22,10.0,SW,8.1,-,N/A,,Clear,230,2013-01-05 21:35:00
3:55 PM,50.4,37.8,62,30.22,10.0,SW,6.9,-,N/A,,Clear,220,2013-01-05 21:55:00
4:35 PM,50.0,37.0,61,30.22,10.0,SW,5.8,-,N/A,,Clear,220,2013-01-05 22:35:00
4:55 PM,49.5,37.4,63,30.23,10.0,WSW,4.6,-,N/A,,Clear,240,2013-01-05 22:55:00
5:15 PM,48.4,37.4,66,30.23,10.0,SW,4.6,-,N/A,,Clear,230,2013-01-05 23:15:00
5:35 PM,47.3,36.7,67,30.23,10.0,Calm,Calm,-,N/A,,Clear,0,2013-01-05 23:35:00
5:55 PM,46.2,36.7,69,30.23,10.0,SSW,3.5,-,N/A,,Clear,200,2013-01-05 23:55:00
6:15 PM,46.0,37.0,71,30.24,10.0,Calm,Calm,-,N/A,,Clear,0,2013-01-06 00:15:00
6:35 PM,43.7,37.2,78,30.24,10.0,Calm,Calm,-,N/A,,Clear,0,2013-01-06 00:35:00
6:55 PM,45.1,37.0,73,30.24,10.0,SSE,3.5,-,N/A,,Clear,150,2013-01-06 00:55:00
7:15 PM,45.1,36.9,73,30.25,10.0,Calm,Calm,-,N/A,,Clear,0,2013-01-06 01:15:00
7:35 PM,40.3,36.3,86,30.25,10.0,SSE,3.5,-,N/A,,Clear,150,2013-01-06 01:35:00
7:55 PM,42.1,36.3,80,30.25,10.0,Calm,Calm,-,N/A,,Clear,0,2013-01-06 01:55:00
8:15 PM,41.0,37.0,86,30.25,10.0,South,3.5,-,N/A,,Clear,170,2013-01-06 02:15:00
8:55 PM,41.0,36.5,84,30.25,10.0,South,5.8,-,N/A,,Clear,190,2013-01-06 02:55:00
9:15 PM,41.0,36.5,84,30.25,10.0,South,3.5,-,N/A,,Clear,170,2013-01-06 03:15:00
9:35 PM,39.4,36.0,88,30.25,10.0,Calm,Calm,-,N/A,,Clear,0,2013-01-06 03:35:00
9:55 PM,39.4,36.1,88,30.26,10.0,Calm,Calm,-,N/A,,Clear,0,2013-01-06 03:55:00
10:15 PM,38.8,36.0,89,30.26,10.0,Calm,Calm,-,N/A,,Clear,0,2013-01-06 04:15:00
10:35 PM,36.9,35.1,93,30.27,10.0,Calm,Calm,-,N/A,,Clear,0,2013-01-06 04:35:00
11:15 PM,37.2,35.8,95,30.28,10.0,Calm,Calm,-,N/A,,Clear,0,2013-01-06 05:15:00
11:35 PM,38.1,35.6,91,30.28,10.0,Calm,Calm,-,N/A,,Clear,0,2013-01-06 05:35:00
11:55 PM,38.5,36.3,92,30.29,10.0,Calm,Calm,-,N/A,,Clear,0,2013-01-06 05:55:00